Pagrindinis puslapis
METAR-TAF:

METAR-TAF

Oro uostai :

Sierra Blanca Regional Airport

Ruidoso, Naujoji Meksika, Jungtinės Amerikos Valstijos

platuma: 33-28N, ilguma: 105-32W, Aukštis: 2076 m

Dabartinis oras

Ataskaita buvo paskelbta 11 minutes, ne 11:15 UTC
Vėjas 8 kt iš Vakarų/Šiaurės Vakarų
Temperatūra 4°C
Drėgmė 44%
Slėgis 1024 hPa
Matomumas: 16.1 km
Giedras dangus

METAR: KSRR 281115Z AUTO 30008KT 10SM CLR 04/M07 A3023 RMK AO2

Laikas: 05:26 (11:26 UTC)


TAF: trūkstamas

Orai ataskaitas ir orų prognozės (METAR, TAF).

turimą stotys yra geltonos ir raudonos taškus žemėlapyje.

Perkelti pele per norėdami pamatyti stoties vardą.

Tada spustelėkite, norėdami matyti oro stebėjimo ir prognozės.

Norėdami pakeisti žemėlapį: spustelėkite ant žalios mygtukų su juodo kryžiaus žemyn,; žalią mygtuką su brūkšneliu, jei norite nutolinti; arba žalių rodyklių gretimoms žemėlapius.


METAR-TAF: